Location: North Bay Shore
(40.7362°N, 73.2626°W)
Time: 04:08:17
(UTC+00:00)

USA 306 - Pass Details

Date: 29 October 2020
Orbit: 569 x 577 km, 54.0° (Epoch: 22 November)

Event Time Altitude Azimuth Distance (km) Brightness Sun altitude
Rises 22:44:15 0° 314° (NW) 2,785 7.0 -10.4°
Reaches altitude 10° 22:46:44 10° 326° (NW) 1,883 5.9 -10.9°
Maximum altitude 22:50:32 30° 28° (NNE) 1,037 3.9 -11.6°
Enters shadow 22:52:56 18° 78° (ENE) 1,436 4.3 -12.0°
